Weather History for Selawik, AK

Change the Weather History Date:

Friday, November 23, 2012

  Actual Average Record
Temperature  
Mean Temperature -12 °F -  
Max Temperature -7 °F 8 °F 33 °F (2002)
Min Temperature -16 °F 0 °F -23 °F (2008)
Degree Days  
Heating Degree Days 76    
Moisture  
Dew Point -23 °F    
Average Humidity 60    
Maximum Humidity 100    
Minimum Humidity 4    
Precipitation  
Precipitation 0.00 in - - ()
Sea Level Pressure  
Sea Level Pressure 30.29 in    
Wind  
Wind Speed 0 mph (North)    
Max Wind Speed 5 mph    
Max Gust Speed -    
Visibility 10 miles    
Events      
Averages and records for this station are not official NWS values.
T = Trace of Precipitation, MM = Missing Value Source: NWS Daily Summary

Daily Weather History Graph

Daily Weather History Graph

Search for Another Location

Airport:

Trip Planner

Search our weather history database for the weather conditions in past years. The results will help you decide how hot, cold, wet, or windy it might be!

Date:

Astronomy

Nov. 23, 2012 Rise Set
Actual Time 11:09 AM AKST 3:42 PM AKST
Civil Twilight 9:49 AM AKST 5:02 PM AKST
Nautical Twilight 8:37 AM AKST 6:14 PM AKST
Astronomical Twilight 7:34 AM AKST 7:17 PM AKST
Moon 2:48 PM AKST (11/23) 4:44 AM AKST (11/23)
Length of Visible Light 7h 13m
Length of Day
4h 32m
Waxing Gibbous, 81% of the Moon is Illuminated
Nov 23
Waxing Gibbous
Nov 28
Full
Dec 6
Last Quarter
Dec 12
New
Dec 19
First Quarter

Hourly Weather History & Observations

Time (AKST) Temp. Windchill Dew Point Humidity Pressure Visibility Wind Dir Wind Speed Gust Speed Precip Events Conditions
12:16 AM -13.0 °F - -25.6 °F 53% 30.33 in 10.0 mi Calm Calm - N/A   Clear
12:36 AM -14.8 °F - -23.8 °F 64% 30.33 in 10.0 mi Calm Calm - N/A   Clear
12:56 AM -13.0 °F - -23.8 °F 59% 30.33 in 10.0 mi Calm Calm - N/A   Clear
1:16 AM -16.6 °F - -27.4 °F 58% 30.33 in 10.0 mi Calm Calm - N/A   Clear
1:36 AM -14.8 °F - -25.6 °F 58% 30.32 in 10.0 mi Calm Calm - N/A   Clear
1:56 AM -14.8 °F - -20.2 °F 77% 30.33 in 10.0 mi Calm Calm - N/A   Clear
2:16 AM -14.8 °F - -23.8 °F 64% 30.32 in 10.0 mi Calm Calm - N/A   Clear
2:36 AM -14.8 °F - -20.2 °F 77% 30.32 in 10.0 mi Calm Calm - N/A   Clear
3:16 AM -13.0 °F - -16.6 °F 84% 30.31 in 10.0 mi Calm Calm - N/A   Clear
3:36 AM -13.0 °F - -27.4 °F 49% 30.30 in 10.0 mi Calm Calm - N/A   Clear
3:56 AM -14.8 °F -24.8 °F -14.8 °F 100% 30.30 in 10.0 mi NNW 3.5 mph - N/A   Clear
4:16 AM -14.8 °F - - N/A% 30.29 in 10.0 mi Calm Calm - N/A   Clear
4:36 AM -14.8 °F - -27.4 °F 53% 30.29 in 10.0 mi Calm Calm - N/A   Clear
4:56 AM -14.8 °F - -16.6 °F 92% 30.29 in 10.0 mi Calm Calm - N/A   Clear
5:16 AM -14.8 °F - -29.2 °F 48% 30.29 in 10.0 mi Calm Calm - N/A   Clear
5:36 AM -13.0 °F - -77.8 °F 4% 30.29 in 10.0 mi Calm Calm - N/A   Clear
5:56 AM -13.0 °F -25.1 °F - N/A% 30.28 in 10.0 mi NNW 4.6 mph - N/A   Clear
6:16 AM -14.8 °F - - N/A% 30.28 in 10.0 mi Calm Calm - N/A   Clear
6:36 AM -14.8 °F - - N/A% 30.28 in 10.0 mi Calm Calm - N/A   Clear
7:16 AM -14.8 °F - - N/A% 30.28 in 10.0 mi Calm Calm - N/A   Clear
7:36 AM -14.8 °F - - N/A% 30.28 in 10.0 mi Calm Calm - N/A   Clear
7:56 AM -14.8 °F - - N/A% 30.28 in 10.0 mi Calm Calm - N/A   Clear
8:16 AM -13.0 °F - -25.6 °F 53% 30.27 in 10.0 mi Calm Calm - N/A   Clear
8:36 AM -11.2 °F - -27.4 °F 45% 30.27 in 10.0 mi Calm Calm - N/A   Clear
8:56 AM -11.2 °F - -23.8 °F 54% 30.28 in 10.0 mi Calm Calm - N/A   Clear
9:16 AM -11.2 °F - -23.8 °F 54% 30.28 in 10.0 mi Calm Calm - N/A   Clear
9:36 AM -11.2 °F - -20.2 °F 64% 30.28 in 10.0 mi Calm Calm - N/A   Clear
9:56 AM -11.2 °F - -25.6 °F 49% 30.27 in 10.0 mi Calm Calm - N/A   Clear
10:16 AM -11.2 °F - -16.6 °F 77% 30.27 in 10.0 mi Calm Calm - N/A   Clear
10:36 AM -11.2 °F -20.6 °F -23.8 °F 54% 30.28 in 10.0 mi WNW 3.5 mph - N/A   Clear
10:56 AM -11.2 °F - -16.6 °F 77% 30.28 in 10.0 mi Calm Calm - N/A   Clear
11:16 AM -11.2 °F - -23.8 °F 54% 30.28 in 10.0 mi Calm Calm - N/A   Clear
11:36 AM -9.4 °F - -13.0 °F 84% 30.29 in 10.0 mi Calm Calm - N/A   Clear
11:56 AM -11.2 °F - -23.8 °F 54% 30.29 in 10.0 mi Calm Calm - N/A   Clear
12:16 PM -11.2 °F - -11.2 °F 100% 30.28 in 10.0 mi Calm Calm - N/A   Clear
12:36 PM -9.4 °F -20.9 °F -23.8 °F 49% 30.27 in 10.0 mi North 4.6 mph - N/A   Clear
12:56 PM -9.4 °F - - N/A% 30.28 in 10.0 mi Calm Calm - N/A   Clear
1:16 PM -7.6 °F -16.5 °F - N/A% 30.28 in 10.0 mi NNW 3.5 mph - N/A   Clear
1:36 PM -7.6 °F -18.8 °F - N/A% 30.29 in 10.0 mi North 4.6 mph - N/A   Clear
1:56 PM -7.6 °F -18.8 °F -27.4 °F 38% 30.28 in 10.0 mi North 4.6 mph - N/A   Clear
2:16 PM -7.6 °F -16.5 °F -31.0 °F 31% 30.27 in 10.0 mi North 3.5 mph - N/A   Clear
2:36 PM -7.6 °F -18.8 °F -25.6 °F 41% 30.27 in 10.0 mi NNE 4.6 mph - N/A   Clear
2:56 PM -7.6 °F - -22.0 °F 50% 30.27 in 10.0 mi Calm Calm - N/A   Clear
3:16 PM -7.6 °F - -16.6 °F 65% 30.28 in 10.0 mi Calm Calm - N/A   Clear
3:36 PM -7.6 °F - -18.4 °F 59% 30.28 in 10.0 mi Calm Calm - N/A   Clear
3:56 PM -7.6 °F - -16.6 °F 65% 30.28 in 10.0 mi Calm Calm - N/A   Clear
4:16 PM -7.6 °F - -18.4 °F 59% 30.28 in 10.0 mi Calm Calm - N/A   Clear
4:36 PM -7.6 °F - -9.4 °F 92% 30.27 in 10.0 mi Calm Calm - N/A   Clear
4:56 PM -7.6 °F - -23.8 °F 45% 30.28 in 10.0 mi Calm Calm - N/A   Clear
5:16 PM -7.6 °F - -13.0 °F 77% 30.28 in 10.0 mi Calm Calm - N/A   Clear
5:36 PM -7.6 °F - - N/A% 30.27 in 10.0 mi Calm Calm - N/A   Clear
5:56 PM -7.6 °F - - N/A% 30.26 in 10.0 mi Calm Calm - N/A   Clear
6:16 PM -9.4 °F - - N/A% 30.27 in 10.0 mi Calm Calm - N/A   Clear
6:36 PM -9.4 °F - - N/A% 30.28 in 10.0 mi Calm Calm - N/A   Clear
6:56 PM -9.4 °F - -29.2 °F 37% 30.28 in 8.0 mi Calm Calm - N/A   Clear
7:16 PM -9.4 °F - -25.6 °F 45% 30.28 in 10.0 mi Calm Calm - N/A   Clear
7:36 PM -11.2 °F - -25.6 °F 49% 30.28 in 10.0 mi Calm Calm - N/A   Clear
7:56 PM -9.4 °F - -20.2 °F 59% 30.28 in 10.0 mi Calm Calm - N/A   Clear
8:16 PM -9.4 °F - -20.2 °F 59% 30.28 in 10.0 mi Calm Calm - N/A   Clear
8:36 PM -9.4 °F - -18.4 °F 65% 30.29 in 10.0 mi Calm Calm - N/A   Clear
8:56 PM -9.4 °F - -20.2 °F 59% 30.28 in 10.0 mi Calm Calm - N/A   Clear
9:16 PM -9.4 °F - -18.4 °F 65% 30.28 in 10.0 mi Calm Calm - N/A   Clear
9:36 PM -9.4 °F - -20.2 °F 59% 30.29 in 10.0 mi Calm Calm - N/A   Clear
9:56 PM -9.4 °F - -20.2 °F 59% 30.29 in 10.0 mi Calm Calm - N/A   Clear
10:16 PM -7.6 °F - -7.6 °F 100% 30.29 in 10.0 mi Calm Calm - N/A   Clear
10:36 PM -7.6 °F - - N/A% 30.29 in 10.0 mi Calm Calm - N/A   Clear
10:56 PM -7.6 °F - - N/A% 30.30 in 10.0 mi Calm Calm - N/A   Clear
11:16 PM -7.6 °F - -27.4 °F 38% 30.30 in 10.0 mi Calm Calm - N/A   Clear
11:36 PM -7.6 °F - -27.4 °F 38% 30.30 in 10.0 mi Calm Calm - N/A   Clear
11:56 PM -9.4 °F - - N/A% 30.29 in 10.0 mi Calm Calm - N/A   Clear